Погода в Намеште над Ославой

Чехия     49°12′29″N   16°09′29″E
темп.,
°C
ветер,
м/с
пор.,
м/с
влажн.,
%
обл.,
%
осадки,
мм/ч
давл.,
гПа
погр.,
м
18 апреля, вс
вс1823:00+3ссз2388100 0.0 1021167
02:00+3с2490100 0.0 1020218
05:00+3ссз2492100 0.0 1019216
08:00+4с3486100 0.0 1019359
11:00+6ссв2277100 0.2 1019880
14:00+7с3372100 0.6 1019884
17:00+9с2363100 0.1 10181062
20:00+6св2383100 0.2 101986
19 апреля, пн
пн1923:00+4ссв2293100 0.0 102038
02:00+4с278590 0.0 1019193
05:00+4с368796 0.0 1018142
08:00+6ссв4782100 0.0 1018843
11:00+6с3688100 0.9 1018759
14:00+8св3579100 1.3 10171145
17:00+6ссв3592100 1.6 1017612
20:00+6с2593100 2.2 1017193
20 апреля, вт
вт2023:00+5с3796100 0.8 1016297
02:00+5ссз2594100 2.7 1016195
05:00+4с3896100 0.0 1015200
08:00+6с3790100 0.1 1016479
11:00+9св4674100 0.4 10151105
14:00+11св3463100 1.3 10141167
17:00+11ссв246346 0.9 1014838
20:00+7с11765 1.2 101510
21 апреля, ср
ср2123:00+4ссз22865 0.0 101619
02:00+4сз22895 0.0 101614
05:00+3сз22895 0.0 101614
08:00+7сз23765 0.0 1016174
11:00+12зсз345942 0.3 10151222
14:00+14з344475 0.9 10142109
17:00+14з355198 0.0 1013838
20:00+9зсз3476100 0.7 101457
22 апреля, чт
чт2223:00+7ссз238992 1.1 101650
02:00+6зсз248963 1.2 101673
05:00+4сз399331 0.0 1017237
08:00+5сз5985100 0.0 1019750
11:00+7сз6957100 0.0 10201144
14:00+10сз69427 0.0 10201957
17:00+10сз710415 0.0 10202347
20:00+5ссз38593 0.0 1022197